contact:dominique.lefevre@mio.osupytheas.fr, maurice.libes@osupytheas.fr, didier.mallarino@osupytheas.fr
Project:EMSO http://www.emso-fr.org/EMSO-France
Depth: 2436.0 m
Title:EMSO Ligure Ouest : Data MII capteur CSTAR
DateTime,Latitude,Longitude,Instrument_Serial,Reference_Counts,Signal_Counts,Corrected_Signal_raw_counts,Calculated_Beam_c_inverse_meters,Internal_thermistor_counts
DateTime,Latitude,Longitude,Instrument_Serial,Reference_Counts,Signal_Counts,Corrected_Signal_raw_counts,Calculated_Beam_c_inverse_meters,Internal_thermistor_counts
2022-06-23T00:00:41,42.805,6.029,CST-1368DR,4690,5132,11661,01.168,551
2022-06-23T00:03:42,42.805,6.029,CST-1368DR,4690,5132,11661,01.168,551
2022-06-23T00:06:44,42.805,6.029,CST-1368DR,4690,5132,11659,01.169,551
2022-06-23T00:09:45,42.805,6.029,CST-1368DR,4690,5130,11656,01.170,551
2022-06-23T00:12:47,42.805,6.029,CST-1368DR,4691,5134,11662,01.168,551
2022-06-23T00:15:48,42.805,6.029,CST-1368DR,4690,5131,11658,01.169,551
2022-06-23T00:18:50,42.805,6.029,CST-1368DR,4691,5134,11662,01.168,551
2022-06-23T00:21:52,42.805,6.029,CST-1368DR,4691,5142,11680,01.162,551
2022-06-23T00:24:53,42.805,6.029,CST-1368DR,4691,5136,11667,01.166,551
2022-06-23T00:27:55,42.805,6.029,CST-1368DR,4690,5138,11674,01.164,551
2022-06-23T00:30:56,42.805,6.029,CST-1368DR,4691,5141,11679,01.162,551
2022-06-23T00:33:58,42.805,6.029,CST-1368DR,4691,5155,11710,01.151,551
2022-06-23T00:36:59,42.805,6.029,CST-1368DR,4691,5152,11704,01.153,551
2022-06-23T00:40:01,42.805,6.029,CST-1368DR,4691,5169,11742,01.140,551
2022-06-23T00:43:03,42.805,6.029,CST-1368DR,4691,5163,11729,01.145,551
2022-06-23T00:46:04,42.805,6.029,CST-1368DR,4691,5205,11824,01.113,551
2022-06-23T00:49:06,42.805,6.029,CST-1368DR,4691,5174,11754,01.136,551
2022-06-23T00:52:07,42.805,6.029,CST-1368DR,4691,5175,11755,01.136,551
2022-06-23T00:55:09,42.805,6.029,CST-1368DR,4691,5198,11807,01.118,551
2022-06-23T00:58:11,42.805,6.029,CST-1368DR,4691,5190,11789,01.125,551
2022-06-23T01:01:12,42.805,6.029,CST-1368DR,4691,5182,11772,01.130,551
2022-06-23T01:04:14,42.805,6.029,CST-1368DR,4691,5188,11785,01.126,551
2022-06-23T01:07:15,42.805,6.029,CST-1368DR,4691,5204,11822,01.113,551
2022-06-23T01:10:17,42.805,6.029,CST-1368DR,4691,5191,11791,01.124,551
2022-06-23T01:13:18,42.805,6.029,CST-1368DR,4691,5191,11792,01.123,551
2022-06-23T01:16:20,42.805,6.029,CST-1368DR,4691,5173,11750,01.138,551
2022-06-23T01:19:22,42.805,6.029,CST-1368DR,4691,5196,11804,01.119,551
2022-06-23T01:22:23,42.805,6.029,CST-1368DR,4691,5182,11772,01.130,551
2022-06-23T01:25:25,42.805,6.029,CST-1368DR,4691,5173,11751,01.137,551
2022-06-23T01:28:26,42.805,6.029,CST-1368DR,4691,5171,11747,01.139,551
2022-06-23T01:31:28,42.805,6.029,CST-1368DR,4691,5160,11722,01.147,551
2022-06-23T01:34:29,42.805,6.029,CST-1368DR,4691,5160,11722,01.147,551
2022-06-23T01:37:31,42.805,6.029,CST-1368DR,4691,5165,11732,01.144,551
2022-06-23T01:40:33,42.805,6.029,CST-1368DR,4690,5160,11724,01.147,551
2022-06-23T01:43:34,42.805,6.029,CST-1368DR,4691,5158,11718,01.149,551
2022-06-23T01:46:36,42.805,6.029,CST-1368DR,4691,5162,11727,01.146,551
2022-06-23T01:49:37,42.805,6.029,CST-1368DR,4691,5164,11730,01.145,551
2022-06-23T01:52:39,42.805,6.029,CST-1368DR,4691,5159,11719,01.148,551
2022-06-23T01:55:41,42.805,6.029,CST-1368DR,4691,5157,11715,01.150,551
2022-06-23T01:58:42,42.805,6.029,CST-1368DR,4691,5157,11715,01.150,551
2022-06-23T02:01:44,42.805,6.029,CST-1368DR,4691,5165,11734,01.143,551
2022-06-23T02:04:45,42.805,6.029,CST-1368DR,4691,5164,11730,01.145,551
2022-06-23T02:07:47,42.805,6.029,CST-1368DR,4691,5161,11725,01.146,551
2022-06-23T02:10:48,42.805,6.029,CST-1368DR,4691,5158,11717,01.149,551
2022-06-23T02:13:50,42.805,6.029,CST-1368DR,4691,5158,11717,01.149,551
2022-06-23T02:16:52,42.805,6.029,CST-1368DR,4691,5158,11716,01.149,551
2022-06-23T02:19:53,42.805,6.029,CST-1368DR,4691,5157,11716,01.149,551
2022-06-23T02:22:55,42.805,6.029,CST-1368DR,4690,5157,11716,01.149,551
2022-06-23T02:25:56,42.805,6.029,CST-1368DR,4691,5169,11742,01.140,551
2022-06-23T02:28:58,42.805,6.029,CST-1368DR,4691,5167,11738,01.142,551
2022-06-23T02:31:59,42.805,6.029,CST-1368DR,4691,5175,11756,01.136,551
2022-06-23T02:35:01,42.805,6.029,CST-1368DR,4691,5176,11758,01.135,551
2022-06-23T02:38:03,42.805,6.029,CST-1368DR,4691,5206,11826,01.112,551
2022-06-23T02:41:04,42.805,6.029,CST-1368DR,4691,5188,11786,01.126,551
2022-06-23T02:44:06,42.805,6.029,CST-1368DR,4691,5176,11759,01.135,551
2022-06-23T02:47:07,42.805,6.029,CST-1368DR,4691,5174,11753,01.137,551
2022-06-23T02:50:09,42.805,6.029,CST-1368DR,4690,5166,11737,01.142,551
2022-06-23T02:53:11,42.805,6.029,CST-1368DR,4690,5165,11735,01.143,551
2022-06-23T02:56:12,42.805,6.029,CST-1368DR,4690,5156,11715,01.150,551
2022-06-23T02:59:14,42.805,6.029,CST-1368DR,4690,5157,11716,01.149,551
2022-06-23T03:02:15,42.805,6.029,CST-1368DR,4690,5165,11734,01.143,551
2022-06-23T03:05:17,42.805,6.029,CST-1368DR,4690,5162,11728,01.145,551
2022-06-23T03:08:18,42.805,6.029,CST-1368DR,4690,5152,11706,01.153,551
2022-06-23T03:11:20,42.805,6.029,CST-1368DR,4690,5151,11703,01.154,551
2022-06-23T03:14:22,42.805,6.029,CST-1368DR,4690,5144,11688,01.159,551
2022-06-23T03:17:23,42.805,6.029,CST-1368DR,4690,5146,11691,01.158,551
2022-06-23T03:20:25,42.805,6.029,CST-1368DR,4690,5145,11690,01.158,551
2022-06-23T03:23:26,42.805,6.029,CST-1368DR,4690,5144,11687,01.159,551
2022-06-23T03:26:28,42.805,6.029,CST-1368DR,4690,5143,11686,01.160,551
2022-06-23T03:29:30,42.805,6.029,CST-1368DR,4690,5143,11684,01.160,551
2022-06-23T03:32:31,42.805,6.029,CST-1368DR,4690,5143,11686,01.160,551
2022-06-23T03:35:33,42.805,6.029,CST-1368DR,4690,5143,11686,01.160,551
2022-06-23T03:38:34,42.805,6.029,CST-1368DR,4690,5152,11705,01.153,551
2022-06-23T03:41:36,42.805,6.029,CST-1368DR,4690,5143,11686,01.160,551
2022-06-23T03:44:37,42.805,6.029,CST-1368DR,4690,5145,11689,01.159,551
2022-06-23T03:47:39,42.805,6.029,CST-1368DR,4690,5142,11684,01.160,551
2022-06-23T03:50:41,42.805,6.029,CST-1368DR,4690,5142,11683,01.161,551
2022-06-23T03:53:42,42.805,6.029,CST-1368DR,4690,5141,11682,01.161,551
2022-06-23T03:56:44,42.805,6.029,CST-1368DR,4690,5142,11683,01.161,551
2022-06-23T03:59:45,42.805,6.029,CST-1368DR,4690,5140,11679,01.162,550
2022-06-23T04:02:47,42.805,6.029,CST-1368DR,4690,5140,11678,01.162,551
2022-06-23T04:05:48,42.805,6.029,CST-1368DR,4690,5141,11681,01.161,551
2022-06-23T04:08:50,42.805,6.029,CST-1368DR,4690,5144,11687,01.159,551
2022-06-23T04:11:52,42.805,6.029,CST-1368DR,4690,5144,11687,01.159,551
2022-06-23T04:14:53,42.805,6.029,CST-1368DR,4690,5141,11682,01.161,551
2022-06-23T04:17:55,42.805,6.029,CST-1368DR,4690,5144,11688,01.159,551
2022-06-23T04:20:56,42.805,6.029,CST-1368DR,4690,5145,11690,01.158,551
2022-06-23T04:23:58,42.805,6.029,CST-1368DR,4690,5141,11680,01.162,551
2022-06-23T04:27:00,42.805,6.029,CST-1368DR,4690,5141,11681,01.161,551
2022-06-23T04:30:01,42.805,6.029,CST-1368DR,4690,5147,11694,01.157,551
2022-06-23T04:33:03,42.805,6.029,CST-1368DR,4690,5148,11697,01.156,551
2022-06-23T04:36:04,42.805,6.029,CST-1368DR,4690,5145,11691,01.158,551
2022-06-23T04:39:06,42.805,6.029,CST-1368DR,4690,5148,11697,01.156,551
2022-06-23T04:42:07,42.805,6.029,CST-1368DR,4690,5148,11697,01.156,551
2022-06-23T04:45:09,42.805,6.029,CST-1368DR,4690,5146,11692,01.158,551
2022-06-23T04:48:11,42.805,6.029,CST-1368DR,4690,5148,11696,01.156,551
2022-06-23T04:51:12,42.805,6.029,CST-1368DR,4690,5147,11694,01.157,551
2022-06-23T04:54:14,42.805,6.029,CST-1368DR,4690,5147,11695,01.157,551
2022-06-23T04:57:15,42.805,6.029,CST-1368DR,4690,5146,11692,01.158,551
2022-06-23T05:00:17,42.805,6.029,CST-1368DR,4690,5149,11699,01.155,551
2022-06-23T05:03:19,42.805,6.029,CST-1368DR,4690,5148,11696,01.156,551
2022-06-23T05:06:20,42.805,6.029,CST-1368DR,4690,5146,11692,01.158,551
2022-06-23T05:09:22,42.805,6.029,CST-1368DR,4690,5145,11690,01.158,551
2022-06-23T05:12:23,42.805,6.029,CST-1368DR,4690,5146,11692,01.158,551
2022-06-23T05:15:25,42.805,6.029,CST-1368DR,4690,5145,11690,01.158,551
2022-06-23T05:18:26,42.805,6.029,CST-1368DR,4690,5144,11688,01.159,551
2022-06-23T05:21:28,42.805,6.029,CST-1368DR,4690,5141,11682,01.161,551
2022-06-23T05:24:30,42.805,6.029,CST-1368DR,4690,5141,11682,01.161,551
2022-06-23T05:27:31,42.805,6.029,CST-1368DR,4690,5142,11683,01.161,551
2022-06-23T05:30:33,42.805,6.029,CST-1368DR,4690,5141,11682,01.161,551
2022-06-23T05:33:34,42.805,6.029,CST-1368DR,4690,5141,11680,01.162,551
2022-06-23T05:36:36,42.805,6.029,CST-1368DR,4690,5144,11688,01.159,551
2022-06-23T05:39:37,42.805,6.029,CST-1368DR,4690,5154,11710,01.151,551
2022-06-23T05:42:39,42.805,6.029,CST-1368DR,4690,5152,11705,01.153,551
2022-06-23T05:45:41,42.805,6.029,CST-1368DR,4690,5152,11707,01.152,551
2022-06-23T05:48:42,42.805,6.029,CST-1368DR,4690,5175,11758,01.135,551
2022-06-23T05:51:44,42.805,6.029,CST-1368DR,4690,5150,11702,01.154,551
2022-06-23T05:54:45,42.805,6.029,CST-1368DR,4690,5158,11719,01.148,551
2022-06-23T05:57:47,42.805,6.029,CST-1368DR,4690,5152,11705,01.153,551
2022-06-23T06:00:49,42.805,6.029,CST-1368DR,4690,5148,11697,01.156,551
2022-06-23T06:03:50,42.805,6.029,CST-1368DR,4690,5147,11694,01.157,551
2022-06-23T06:06:52,42.805,6.029,CST-1368DR,4690,5154,11710,01.151,551
2022-06-23T06:09:53,42.805,6.029,CST-1368DR,4690,5175,11759,01.135,551
2022-06-23T06:12:55,42.805,6.029,CST-1368DR,4690,5162,11728,01.145,551
2022-06-23T06:15:56,42.805,6.029,CST-1368DR,4690,5154,11711,01.151,551
2022-06-23T06:18:58,42.805,6.029,CST-1368DR,4690,5151,11704,01.153,551
2022-06-23T06:22:00,42.805,6.029,CST-1368DR,4690,5148,11698,01.156,551
2022-06-23T06:25:01,42.805,6.029,CST-1368DR,4690,5141,11681,01.161,551
2022-06-23T06:28:03,42.805,6.029,CST-1368DR,4690,5131,11657,01.170,551
2022-06-23T06:31:04,42.805,6.029,CST-1368DR,4690,5135,11667,01.166,551
2022-06-23T06:34:06,42.805,6.029,CST-1368DR,4690,5137,11671,01.165,551
2022-06-23T06:37:07,42.805,6.029,CST-1368DR,4690,5135,11667,01.166,551
2022-06-23T06:40:09,42.805,6.029,CST-1368DR,4690,5132,11660,01.169,551
2022-06-23T06:43:11,42.805,6.029,CST-1368DR,4690,5133,11662,01.168,551
2022-06-23T06:46:12,42.805,6.029,CST-1368DR,4690,5129,11653,01.171,551
2022-06-23T06:49:14,42.805,6.029,CST-1368DR,4690,5129,11653,01.171,551
2022-06-23T06:52:15,42.805,6.029,CST-1368DR,4690,5128,11651,01.172,551
2022-06-23T06:55:17,42.805,6.029,CST-1368DR,4690,5130,11655,01.170,551
2022-06-23T06:58:19,42.805,6.029,CST-1368DR,4690,5128,11652,01.171,551
2022-06-23T07:01:20,42.805,6.029,CST-1368DR,4690,5128,11652,01.171,551
2022-06-23T07:04:22,42.805,6.029,CST-1368DR,4690,5128,11650,01.172,551
2022-06-23T07:07:23,42.805,6.029,CST-1368DR,4689,5127,11652,01.171,551
2022-06-23T07:10:25,42.805,6.029,CST-1368DR,4690,5134,11664,01.167,551
2022-06-23T07:13:26,42.805,6.029,CST-1368DR,4689,5133,11664,01.167,551
2022-06-23T07:16:28,42.805,6.029,CST-1368DR,4689,5134,11666,01.166,551
2022-06-23T07:19:30,42.805,6.029,CST-1368DR,4689,5132,11663,01.167,551
2022-06-23T07:22:31,42.805,6.029,CST-1368DR,4689,5126,11648,01.173,551
2022-06-23T07:25:33,42.805,6.029,CST-1368DR,4689,5128,11653,01.171,551
2022-06-23T07:28:34,42.805,6.029,CST-1368DR,4690,5127,11650,01.172,551
2022-06-23T07:31:36,42.805,6.029,CST-1368DR,4689,5127,11651,01.172,551
2022-06-23T07:34:37,42.805,6.029,CST-1368DR,4689,5124,11644,01.174,551
2022-06-23T07:37:39,42.805,6.029,CST-1368DR,4689,5128,11653,01.171,551
2022-06-23T07:40:41,42.805,6.029,CST-1368DR,4689,5125,11647,01.173,551
2022-06-23T07:43:42,42.805,6.029,CST-1368DR,4689,5123,11643,01.174,551
2022-06-23T07:46:44,42.805,6.029,CST-1368DR,4689,5122,11640,01.175,551
2022-06-23T07:49:45,42.805,6.029,CST-1368DR,4689,5125,11647,01.173,551
2022-06-23T07:52:47,42.805,6.029,CST-1368DR,4689,5127,11651,01.172,551
2022-06-23T07:55:49,42.805,6.029,CST-1368DR,4689,5126,11650,01.172,551
2022-06-23T07:58:50,42.805,6.029,CST-1368DR,4689,5129,11656,01.170,551
2022-06-23T08:01:52,42.805,6.029,CST-1368DR,4689,5129,11656,01.170,551
2022-06-23T08:04:53,42.805,6.029,CST-1368DR,4689,5124,11644,01.174,551
2022-06-23T08:07:55,42.805,6.029,CST-1368DR,4689,5128,11653,01.171,551
2022-06-23T08:10:56,42.805,6.029,CST-1368DR,4689,5127,11651,01.172,551
2022-06-23T08:13:58,42.805,6.029,CST-1368DR,4690,5129,11654,01.171,551
2022-06-23T08:17:00,42.805,6.029,CST-1368DR,4690,5130,11657,01.170,551
2022-06-23T08:20:01,42.805,6.029,CST-1368DR,4690,5131,11659,01.169,551
2022-06-23T08:23:03,42.805,6.029,CST-1368DR,4689,5129,11656,01.170,551
2022-06-23T08:26:04,42.805,6.029,CST-1368DR,4690,5134,11665,01.167,551
2022-06-23T08:29:06,42.805,6.029,CST-1368DR,4689,5132,11664,01.167,551
2022-06-23T08:32:08,42.805,6.029,CST-1368DR,4689,5132,11662,01.168,551
2022-06-23T08:35:09,42.805,6.029,CST-1368DR,4689,5123,11643,01.174,551
2022-06-23T08:38:11,42.805,6.029,CST-1368DR,4689,5125,11646,01.173,551
2022-06-23T08:41:12,42.805,6.029,CST-1368DR,4689,5129,11656,01.170,551
2022-06-23T08:44:14,42.805,6.029,CST-1368DR,4689,5130,11657,01.170,551
2022-06-23T08:47:15,42.805,6.029,CST-1368DR,4689,5125,11646,01.173,551
2022-06-23T08:50:17,42.805,6.029,CST-1368DR,4690,5128,11651,01.172,551
2022-06-23T08:53:19,42.805,6.029,CST-1368DR,4690,5134,11666,01.166,551
2022-06-23T08:56:20,42.805,6.029,CST-1368DR,4690,5132,11661,01.168,551
2022-06-23T08:59:22,42.805,6.029,CST-1368DR,4690,5135,11666,01.166,551
2022-06-23T09:02:23,42.805,6.029,CST-1368DR,4690,5133,11663,01.167,551
2022-06-23T09:05:25,42.805,6.029,CST-1368DR,4690,5134,11665,01.167,551
2022-06-23T09:08:26,42.805,6.029,CST-1368DR,4690,5136,11670,01.165,551
2022-06-23T09:11:28,42.805,6.029,CST-1368DR,4690,5134,11665,01.167,551
2022-06-23T09:14:30,42.805,6.029,CST-1368DR,4690,5136,11669,01.165,551
2022-06-23T09:17:31,42.805,6.029,CST-1368DR,4690,5132,11661,01.168,551
2022-06-23T09:20:33,42.805,6.029,CST-1368DR,4690,5133,11663,01.167,551
2022-06-23T09:23:34,42.805,6.029,CST-1368DR,4690,5134,11665,01.167,551
2022-06-23T09:26:36,42.805,6.029,CST-1368DR,4690,5133,11663,01.167,551
2022-06-23T09:29:38,42.805,6.029,CST-1368DR,4689,5128,11654,01.171,551
2022-06-23T09:32:39,42.805,6.029,CST-1368DR,4690,5130,11656,01.170,551
2022-06-23T09:35:41,42.805,6.029,CST-1368DR,4689,5128,11653,01.171,551
2022-06-23T09:38:42,42.805,6.029,CST-1368DR,4689,5132,11663,01.167,551
2022-06-23T09:41:44,42.805,6.029,CST-1368DR,4689,5123,11643,01.174,551
2022-06-23T09:44:45,42.805,6.029,CST-1368DR,4690,5130,11657,01.170,551
2022-06-23T09:47:47,42.805,6.029,CST-1368DR,4689,5131,11660,01.169,551
2022-06-23T09:50:49,42.805,6.029,CST-1368DR,4690,5130,11656,01.170,551
2022-06-23T09:53:50,42.805,6.029,CST-1368DR,4690,5130,11655,01.170,551
2022-06-23T09:56:52,42.805,6.029,CST-1368DR,4690,5133,11662,01.168,551
2022-06-23T09:59:53,42.805,6.029,CST-1368DR,4690,5129,11653,01.171,551
2022-06-23T10:02:55,42.805,6.029,CST-1368DR,4690,5128,11650,01.172,551
2022-06-23T10:05:56,42.805,6.029,CST-1368DR,4689,5124,11644,01.174,551
2022-06-23T10:08:58,42.805,6.029,CST-1368DR,4690,5125,11644,01.174,551
2022-06-23T10:12:00,42.805,6.029,CST-1368DR,4690,5126,11648,01.173,551
2022-06-23T10:15:01,42.805,6.029,CST-1368DR,4690,5132,11661,01.168,551
2022-06-23T10:18:03,42.805,6.029,CST-1368DR,4690,5131,11658,01.169,551
2022-06-23T10:21:04,42.805,6.029,CST-1368DR,4690,5128,11652,01.171,551
2022-06-23T10:24:06,42.805,6.029,CST-1368DR,4690,5129,11653,01.171,551
2022-06-23T10:27:08,42.805,6.029,CST-1368DR,4690,5133,11663,01.167,551
2022-06-23T10:30:09,42.805,6.029,CST-1368DR,4690,5131,11657,01.170,551
2022-06-23T10:33:11,42.805,6.029,CST-1368DR,4690,5132,11659,01.169,551
2022-06-23T10:36:12,42.805,6.029,CST-1368DR,4690,5131,11658,01.169,551
2022-06-23T10:39:14,42.805,6.029,CST-1368DR,4690,5134,11665,01.167,551
2022-06-23T10:42:15,42.805,6.029,CST-1368DR,4690,5130,11655,01.170,551
2022-06-23T10:45:17,42.805,6.029,CST-1368DR,4690,5129,11653,01.171,551
2022-06-23T10:48:19,42.805,6.029,CST-1368DR,4690,5131,11657,01.170,551
2022-06-23T10:51:20,42.805,6.029,CST-1368DR,4690,5130,11655,01.170,551
2022-06-23T10:54:22,42.805,6.029,CST-1368DR,4690,5131,11658,01.169,551
2022-06-23T10:57:23,42.805,6.029,CST-1368DR,4690,5127,11649,01.172,551
2022-06-23T11:00:25,42.805,6.029,CST-1368DR,4690,5130,11656,01.170,551
2022-06-23T11:03:27,42.805,6.029,CST-1368DR,4690,5125,11644,01.174,551
2022-06-23T11:06:28,42.805,6.029,CST-1368DR,4690,5130,11656,01.170,551
2022-06-23T11:09:30,42.805,6.029,CST-1368DR,4690,5132,11660,01.169,551
2022-06-23T11:12:31,42.805,6.029,CST-1368DR,4690,5131,11658,01.169,551
2022-06-23T11:15:33,42.805,6.029,CST-1368DR,4690,5134,11664,01.167,551
2022-06-23T11:18:34,42.805,6.029,CST-1368DR,4690,5132,11660,01.169,551
2022-06-23T11:21:36,42.805,6.029,CST-1368DR,4690,5135,11667,01.166,551
2022-06-23T11:24:38,42.805,6.029,CST-1368DR,4690,5132,11659,01.169,551
2022-06-23T11:27:39,42.805,6.029,CST-1368DR,4690,5134,11665,01.167,551
2022-06-23T11:30:41,42.805,6.029,CST-1368DR,4690,5131,11657,01.170,551
2022-06-23T11:33:42,42.805,6.029,CST-1368DR,4690,5134,11665,01.167,551
2022-06-23T11:36:44,42.805,6.029,CST-1368DR,4690,5135,11666,01.166,551
2022-06-23T11:39:45,42.805,6.029,CST-1368DR,4690,5133,11662,01.168,551
2022-06-23T11:42:47,42.805,6.029,CST-1368DR,4690,5134,11665,01.167,551
2022-06-23T11:45:49,42.805,6.029,CST-1368DR,4690,5133,11662,01.168,551
2022-06-23T11:48:50,42.805,6.029,CST-1368DR,4690,5135,11666,01.166,551
2022-06-23T11:51:52,42.805,6.029,CST-1368DR,4690,5133,11663,01.167,550
2022-06-23T11:54:53,42.805,6.029,CST-1368DR,4690,5134,11664,01.167,551
2022-06-23T11:57:55,42.805,6.029,CST-1368DR,4690,5130,11656,01.170,551
2022-06-23T12:00:57,42.805,6.029,CST-1368DR,4690,5132,11661,01.168,551
2022-06-23T12:03:58,42.805,6.029,CST-1368DR,4690,5133,11662,01.168,551
2022-06-23T12:07:00,42.805,6.029,CST-1368DR,4690,5130,11656,01.170,551
2022-06-23T12:10:01,42.805,6.029,CST-1368DR,4690,5153,11709,01.152,551
2022-06-23T12:13:03,42.805,6.029,CST-1368DR,4690,5138,11675,01.163,551
2022-06-23T12:16:04,42.805,6.029,CST-1368DR,4690,5138,11675,01.163,551
2022-06-23T12:19:06,42.805,6.029,CST-1368DR,4690,5134,11665,01.167,551
2022-06-23T12:22:08,42.805,6.029,CST-1368DR,4690,5131,11658,01.169,551
2022-06-23T12:25:09,42.805,6.029,CST-1368DR,4690,5132,11661,01.168,551
2022-06-23T12:28:11,42.805,6.029,CST-1368DR,4690,5132,11661,01.168,551
2022-06-23T12:31:12,42.805,6.029,CST-1368DR,4690,5131,11658,01.169,551
2022-06-23T12:34:14,42.805,6.029,CST-1368DR,4690,5131,11659,01.169,551
2022-06-23T12:37:15,42.805,6.029,CST-1368DR,4690,5134,11666,01.166,551
2022-06-23T12:40:17,42.805,6.029,CST-1368DR,4690,5130,11656,01.170,551
2022-06-23T12:43:19,42.805,6.029,CST-1368DR,4690,5131,11659,01.169,551
2022-06-23T12:46:20,42.805,6.029,CST-1368DR,4690,5132,11659,01.169,551
2022-06-23T12:49:22,42.805,6.029,CST-1368DR,4690,5129,11653,01.171,551
2022-06-23T12:52:23,42.805,6.029,CST-1368DR,4690,5128,11650,01.172,551
2022-06-23T12:55:25,42.805,6.029,CST-1368DR,4690,5130,11657,01.170,551
2022-06-23T12:58:27,42.805,6.029,CST-1368DR,4690,5130,11657,01.170,550
2022-06-23T13:01:28,42.805,6.029,CST-1368DR,4690,5133,11663,01.167,551
2022-06-23T13:04:30,42.805,6.029,CST-1368DR,4690,5140,11679,01.162,551
2022-06-23T13:07:31,42.805,6.029,CST-1368DR,4690,5132,11661,01.168,551
2022-06-23T13:10:33,42.805,6.029,CST-1368DR,4690,5131,11659,01.169,551
2022-06-23T13:13:34,42.805,6.029,CST-1368DR,4690,5134,11664,01.167,551
2022-06-23T13:16:36,42.805,6.029,CST-1368DR,4690,5131,11659,01.169,551
2022-06-23T13:19:38,42.805,6.029,CST-1368DR,4690,5131,11657,01.170,551
2022-06-23T13:22:39,42.805,6.029,CST-1368DR,4690,5132,11660,01.169,551
2022-06-23T13:25:41,42.805,6.029,CST-1368DR,4690,5130,11655,01.170,551
2022-06-23T13:28:42,42.805,6.029,CST-1368DR,4690,5132,11660,01.169,551
2022-06-23T13:31:44,42.805,6.029,CST-1368DR,4690,5132,11661,01.168,551
2022-06-23T13:34:46,42.805,6.029,CST-1368DR,4690,5132,11661,01.168,551
2022-06-23T13:37:47,42.805,6.029,CST-1368DR,4690,5132,11660,01.169,551
2022-06-23T13:40:49,42.805,6.029,CST-1368DR,4690,5132,11660,01.169,551
2022-06-23T13:43:50,42.805,6.029,CST-1368DR,4690,5133,11663,01.167,551
2022-06-23T13:46:52,42.805,6.029,CST-1368DR,4690,5133,11662,01.168,551
2022-06-23T13:49:53,42.805,6.029,CST-1368DR,4689,5131,11660,01.169,551
2022-06-23T13:52:55,42.805,6.029,CST-1368DR,4689,5132,11662,01.168,551
2022-06-23T13:55:57,42.805,6.029,CST-1368DR,4689,5131,11661,01.168,551
2022-06-23T13:58:58,42.805,6.029,CST-1368DR,4689,5131,11661,01.168,551
2022-06-23T14:02:00,42.805,6.029,CST-1368DR,4690,5131,11658,01.169,551
2022-06-23T14:05:01,42.805,6.029,CST-1368DR,4689,5130,11659,01.169,551
2022-06-23T14:08:03,42.805,6.029,CST-1368DR,4689,5130,11657,01.170,551
2022-06-23T14:11:04,42.805,6.029,CST-1368DR,4689,5130,11658,01.169,551
2022-06-23T14:14:06,42.805,6.029,CST-1368DR,4690,5145,11690,01.158,551
2022-06-23T14:17:08,42.805,6.029,CST-1368DR,4690,5133,11663,01.167,551
2022-06-23T14:20:09,42.805,6.029,CST-1368DR,4689,5134,11668,01.166,551
2022-06-23T14:23:11,42.805,6.029,CST-1368DR,4689,5135,11669,01.165,551
2022-06-23T14:26:12,42.805,6.029,CST-1368DR,4690,5131,11658,01.169,551
2022-06-23T14:29:14,42.805,6.029,CST-1368DR,4689,5130,11659,01.169,551
2022-06-23T14:32:16,42.805,6.029,CST-1368DR,4689,5133,11664,01.167,551
2022-06-23T14:35:17,42.805,6.029,CST-1368DR,4690,5132,11660,01.169,551
2022-06-23T14:38:19,42.805,6.029,CST-1368DR,4689,5133,11664,01.167,551
2022-06-23T14:41:20,42.805,6.029,CST-1368DR,4690,5144,11688,01.159,551
2022-06-23T14:44:22,42.805,6.029,CST-1368DR,4689,5134,11667,01.166,551
2022-06-23T14:47:23,42.805,6.029,CST-1368DR,4689,5130,11657,01.170,551
2022-06-23T14:50:25,42.805,6.029,CST-1368DR,4690,5130,11657,01.170,551
2022-06-23T14:53:27,42.805,6.029,CST-1368DR,4689,5131,11660,01.169,551
2022-06-23T14:56:28,42.805,6.029,CST-1368DR,4689,5129,11656,01.170,551
2022-06-23T14:59:30,42.805,6.029,CST-1368DR,4689,5128,11653,01.171,551
2022-06-23T15:02:31,42.805,6.029,CST-1368DR,4689,5132,11664,01.167,551
2022-06-23T15:05:33,42.805,6.029,CST-1368DR,4689,5131,11661,01.168,551
2022-06-23T15:08:34,42.805,6.029,CST-1368DR,4690,5131,11659,01.169,551
2022-06-23T15:11:36,42.805,6.029,CST-1368DR,4689,5133,11665,01.167,551
2022-06-23T15:14:38,42.805,6.029,CST-1368DR,4689,5134,11667,01.166,551
2022-06-23T15:17:39,42.805,6.029,CST-1368DR,4689,5132,11664,01.167,551
2022-06-23T15:20:41,42.805,6.029,CST-1368DR,4690,5132,11660,01.169,551
2022-06-23T15:23:42,42.805,6.029,CST-1368DR,4689,5130,11658,01.169,551
2022-06-23T15:26:44,42.805,6.029,CST-1368DR,4689,5131,11661,01.168,551
2022-06-23T15:29:46,42.805,6.029,CST-1368DR,4689,5133,11666,01.166,551
2022-06-23T15:32:47,42.805,6.029,CST-1368DR,4689,5130,11658,01.169,551
2022-06-23T15:35:49,42.805,6.029,CST-1368DR,4689,5134,11668,01.166,551
2022-06-23T15:38:50,42.805,6.029,CST-1368DR,4689,5134,11667,01.166,551
2022-06-23T15:41:52,42.805,6.029,CST-1368DR,4689,5134,11668,01.166,551
2022-06-23T15:44:53,42.805,6.029,CST-1368DR,4689,5133,11666,01.166,551
2022-06-23T15:47:55,42.805,6.029,CST-1368DR,4689,5134,11666,01.166,551
2022-06-23T15:50:57,42.805,6.029,CST-1368DR,4689,5135,11670,01.165,551
2022-06-23T15:53:58,42.805,6.029,CST-1368DR,4689,5136,11673,01.164,551
2022-06-23T15:57:00,42.805,6.029,CST-1368DR,4689,5135,11670,01.165,551
2022-06-23T16:00:01,42.805,6.029,CST-1368DR,4689,5134,11667,01.166,551
2022-06-23T16:03:03,42.805,6.029,CST-1368DR,4689,5134,11668,01.166,551
2022-06-23T16:06:05,42.805,6.029,CST-1368DR,4689,5132,11664,01.167,551
2022-06-23T16:09:06,42.805,6.029,CST-1368DR,4689,5136,11672,01.164,551
2022-06-23T16:12:08,42.805,6.029,CST-1368DR,4689,5135,11669,01.165,551
2022-06-23T16:15:09,42.805,6.029,CST-1368DR,4690,5159,11722,01.147,551
2022-06-23T16:18:11,42.805,6.029,CST-1368DR,4689,5148,11700,01.155,551
2022-06-23T16:21:12,42.805,6.029,CST-1368DR,4689,5135,11670,01.165,551
2022-06-23T16:24:14,42.805,6.029,CST-1368DR,4689,5148,11698,01.156,551
2022-06-23T16:27:16,42.805,6.029,CST-1368DR,4689,5156,11718,01.149,551
2022-06-23T16:30:17,42.805,6.029,CST-1368DR,4689,5166,11741,01.141,551
2022-06-23T16:33:19,42.805,6.029,CST-1368DR,4689,5159,11723,01.147,551
2022-06-23T16:36:20,42.805,6.029,CST-1368DR,4689,5186,11786,01.126,551